Theta_e
341 340 341 339 339 340 341 341 343 345 345 345 343 341 339 339 339 338 338 336 337 339 341 340 342 342 343 345 347 348 349 349 347 346 345 344 344 343 343 343 343 343 340
342 339 340 338 338 338 338 339 340 342 347 345 343 342 340 340 340 339 338 339 337 339 340 342 342 342 342 344 345 346 348 349 347 346 345 345 344 343 343 343 342 342 341
343 342 338 338 338 341 341 340 339 343 343 343 342 341 339 340 339 339 338 338 337 338 340 341 341 343 343 342 343 345 347 348 347 345 344 343 344 343 344 344 342 343 340
343 341 338 337 339 339 338 337 337 341 340 342 343 341 340 341 339 339 338 338 337 337 337 340 342 344 345 343 342 344 344 348 346 344 344 344 344 343 343 344 343 342 340
342 341 338 338 340 339 337 336 339 340 341 342 340 338 340 339 339 336 337 337 340 338 338 340 341 341 342 342 342 342 344 347 345 344 344 345 344 342 344 344 341 341 340
343 342 340 340 340 339 337 338 340 341 340 338 336 332 334 335 332 336 337 336 338 338 340 340 340 338 341 341 342 342 343 347 344 344 343 341 342 343 342 341 341 340 339
343 342 340 342 340 336 336 342 341 338 334 331 329 329 327 329 331 333 335 335 336 337 338 339 340 345 338 340 341 342 341 345 344 345 343 339 341 342 341 341 338 338 336
343 342 342 338 337 336 341 340 337 333 333 333 328 327 323 324 326 330 329 334 337 337 336 337 339 339 340 344 341 342 341 344 345 345 344 341 340 341 341 340 337 333 331
344 343 342 340 339 341 340 339 337 335 329 327 329 329 321 316 321 326 332 332 335 336 336 338 337 338 342 344 341 341 343 344 344 344 344 341 341 341 340 337 334 331 328
343 344 344 342 342 341 340 339 335 331 329 323 327 327 327 327 318 318 324 327 332 333 337 336 338 338 341 341 340 341 340 341 344 343 342 343 342 340 338 335 333 333 333
344 342 343 342 341 339 339 338 335 329 328 329 328 325 327 329 330 326 319 323 328 332 335 336 337 339 340 341 342 338 337 338 339 339 340 341 341 341 338 335 334 332 330
339 342 341 341 341 340 338 337 337 335 332 332 331 330 327 325 326 327 324 323 325 327 333 336 340 340 343 343 339 336 334 333 332 332 333 337 339 339 336 335 333 333 332
337 340 341 341 339 339 337 337 336 334 333 331 332 329 330 328 330 327 326 323 323 325 329 332 336 340 341 341 341 336 335 330 327 327 329 331 335 334 333 334 334 333 332
339 341 340 340 338 337 335 336 334 333 334 333 333 332 330 330 329 328 325 325 319 321 324 326 336 336 336 335 336 333 340 327 325 323 325 328 327 329 329 329 331 330 329
337 338 338 338 336 335 336 336 333 333 334 333 333 333 331 331 331 330 329 327 327 319 318 327 330 335 337 335 335 340 343 325 325 323 324 323 324 323 325 326 327 327 327
337 336 336 336 335 335 335 335 333 334 332 332 331 332 332 332 332 331 330 330 328 328 320 327 328 331 331 333 337 338 337 327 323 322 322 320 319 320 321 322 322 323 324
335 334 333 333 333 334 335 334 334 332 330 333 333 332 332 333 331 331 329 330 327 328 322 320 324 322 323 326 330 332 329 328 324 321 321 319 318 318 318 318 316 316 317
334 333 333 332 332 333 334 333 332 331 330 330 329 330 325 329 331 331 329 325 329 332 325 319 319 317 319 322 324 324 325 326 325 321 319 317 315 314 314 314 314 313 316
333 333 333 332 332 333 333 333 332 331 329 326 325 321 324 326 327 329 327 328 330 329 328 324 317 318 317 318 318 320 320 320 320 319 316 315 314 314 314 312 312 312 310
333 333 333 332 332 332 332 333 332 331 329 327 325 326 325 324 326 327 329 331 327 324 326 319 316 315 315 317 317 316 314 317 317 319 318 316 316 316 314 313 313 312 309
334 333 333 333 334 333 331 332 331 331 331 326 325 325 325 324 322 323 329 328 326 324 321 317 315 314 313 313 313 314 314 314 314 316 315 316 316 315 315 314 316 313 308
334 333 332 333 333 329 303 308 323 331 330 327 324 325 324 320 318 314 316 317 323 324 319 316 316 313 313 313 315 313 311 309 307 315 313 307 313 314 317 320 309 307 306
335 332 330 332 332 330 302 303 309 331 330 330 325 324 322 324 324 323 312 311 312 311 318 323 317 317 314 315 316 313 313 313 312 313 312 305 309 310 310 312 305 305 303
333 333 332 332 331 323 301 302 307 332 329 328 326 324 321 320 326 324 325 325 325 326 326 327 326 322 323 324 320 318 315 313 313 313 316 308 311 314 315 315 302 302 301
330 330 330 329 330 327 301 301 316 328 326 326 326 324 322 320 305 305 324 323 322 319 308 307 308 305 303 305 315 316 313 312 310 311 312 317 316 315 314 314 310 300 300
330 327 328 328 313 329 301 301 316 326 323 321 320 320 306 314 299 304 322 322 317 317 318 319 316 309 315 311 309 319 318 314 313 312 320 317 315 315 313 315 312 307 305
Wind_Speed
11 11 10 10 10 9 8 8 7 7 9 10 9 9 8 7 7 5 4 6 9 10 9 10 12 10 9 8 7 7 9 12 18 17 18 20 18 20 21 17 15 16 15
11 13 11 11 10 9 8 7 7 7 7 9 10 9 9 7 7 6 5 5 9 10 10 11 12 12 13 11 9 9 9 11 16 17 19 17 18 17 17 17 16 17 16
13 13 11 11 10 8 8 7 6 7 7 7 10 9 8 8 8 8 7 6 5 11 10 12 13 13 14 12 10 9 9 11 15 17 18 18 16 16 15 16 15 16 16
14 13 11 10 9 8 7 7 6 8 8 8 7 7 7 7 8 8 7 6 6 6 8 10 12 14 14 13 11 10 9 11 14 17 16 16 16 14 14 14 15 16 16
14 12 10 9 9 7 7 6 7 8 7 7 6 6 5 5 5 6 9 8 7 7 5 3 8 9 15 14 12 11 9 12 14 19 18 15 14 11 10 12 13 15 14
13 12 9 9 9 7 7 8 10 8 6 5 4 3 4 5 4 8 8 7 6 7 5 5 4 5 9 10 11 11 11 12 15 15 16 16 12 11 10 10 12 11 15
12 11 9 9 11 11 11 12 6 6 5 3 1 3 3 5 8 8 6 7 7 6 5 4 4 4 6 9 9 8 10 13 15 14 15 14 16 15 13 12 20 23 21
12 11 10 8 10 8 9 8 7 3 4 4 4 4 3 3 4 5 4 7 7 5 5 6 5 5 6 4 6 9 10 12 13 17 17 17 18 14 15 20 25 28 26
11 11 10 8 8 8 7 8 6 8 5 4 7 4 3 2 2 3 8 6 6 5 5 6 6 5 6 5 5 7 9 10 13 15 15 13 16 18 24 26 28 26 24
10 10 9 9 9 6 7 5 6 6 6 5 4 5 4 1 3 3 2 6 5 5 5 5 5 6 5 4 6 6 9 9 10 13 15 18 20 24 26 27 26 26 24
8 9 9 9 8 6 6 6 7 7 7 5 6 5 5 3 1 1 3 5 4 3 3 4 4 5 7 5 4 7 9 9 9 9 12 18 23 26 26 27 25 23 22
6 8 9 8 8 6 6 5 7 9 7 6 6 6 7 5 5 3 2 3 4 3 2 2 3 3 3 5 4 3 9 9 8 10 15 16 23 26 26 26 26 24 23
5 7 8 8 6 5 6 6 7 7 7 7 8 6 5 4 2 4 3 4 3 2 2 2 2 1 1 2 4 6 9 9 9 13 12 17 21 25 25 25 23 23 20
6 8 6 6 5 6 6 6 5 5 6 7 8 6 5 5 4 4 4 5 4 2 1 3 2 2 3 3 3 6 7 9 11 14 16 22 26 22 21 21 19 18 17
6 7 7 7 7 7 7 7 5 7 6 7 6 7 6 5 5 5 4 4 3 5 4 5 3 3 2 1 5 8 8 12 14 18 22 24 22 19 18 17 16 15 11
7 8 8 8 8 7 7 7 6 5 5 4 4 5 5 4 5 5 5 3 4 3 4 1 2 3 3 1 6 6 7 14 22 24 26 21 20 20 17 15 12 12 13
8 8 8 8 8 7 6 5 5 5 4 5 5 5 5 5 4 4 3 5 6 4 5 2 2 5 3 3 6 9 9 11 14 29 29 27 18 19 17 18 19 15 13
8 8 8 7 7 6 6 5 5 4 4 4 4 5 3 3 5 5 4 5 5 5 7 8 3 3 5 3 8 11 8 10 13 23 25 23 20 19 17 17 16 14 8
8 8 7 7 6 6 6 4 3 5 4 3 4 4 4 4 4 5 5 6 7 6 9 9 5 3 4 5 10 10 11 12 9 25 23 23 19 16 13 15 10 7 9
8 8 7 6 6 5 4 4 4 5 5 5 3 2 3 3 3 6 7 9 9 9 9 8 7 6 4 5 9 12 11 11 12 10 14 13 13 12 10 9 9 10 11
7 7 7 6 5 5 3 5 4 5 6 6 4 3 4 4 5 7 6 10 11 9 10 8 7 8 7 7 10 8 12 12 9 6 9 6 6 5 6 8 9 9 9
7 7 6 6 6 4 4 1 2 4 6 7 5 5 4 6 7 7 8 7 12 15 13 8 7 10 10 9 9 11 13 12 7 3 7 4 3 6 6 4 7 8 8
7 8 6 5 6 5 4 2 3 5 4 4 4 4 4 3 8 7 10 11 10 8 10 13 13 11 12 12 13 11 11 9 6 9 7 4 0 6 4 5 5 6 8
6 7 7 5 5 5 1 5 5 5 4 4 4 4 4 5 8 9 11 11 11 11 12 10 12 13 14 15 13 11 11 10 9 5 2 4 4 6 5 5 4 5 5
7 6 5 5 4 6 5 5 5 6 5 4 4 4 4 5 9 11 13 13 12 8 8 13 12 13 12 10 14 11 10 12 7 4 2 6 6 6 5 5 5 5 5
6 6 5 4 3 6 4 3 4 5 5 4 4 4 5 5 10 12 11 13 11 10 13 13 11 13 14 12 7 6 11 11 7 6 6 5 8 6 5 5 5 6 6
Wind_Direction
202 199 206 205 207 202 207 212 220 224 227 230 231 233 237 240 248 252 263 238 248 249 246 243 242 240 227 217 220 227 206 196 194 187 189 174 195 193 199 185 174 160 145
203 207 205 209 209 206 206 218 220 226 232 235 228 231 238 241 240 243 251 256 240 243 238 234 237 236 233 235 227 222 209 196 197 186 181 190 192 192 194 188 177 161 156
205 209 211 211 212 205 206 212 225 237 243 233 235 229 240 241 245 241 248 250 232 223 240 237 236 240 233 233 238 225 212 195 199 186 182 185 182 185 178 179 178 166 161
206 211 215 216 207 204 204 216 226 231 234 232 231 230 237 246 243 241 244 256 242 246 209 240 250 232 223 223 231 225 212 195 196 191 181 174 180 180 180 174 173 169 166
205 214 217 210 197 201 212 218 223 236 227 235 231 244 259 253 256 250 255 244 240 236 215 195 271 236 216 216 226 235 209 194 194 192 183 173 179 181 186 169 175 169 170
203 208 207 194 195 201 218 211 223 212 239 250 237 247 277 280 255 254 251 235 221 213 212 239 242 189 187 206 228 227 223 197 202 206 181 175 171 181 176 168 166 162 146
196 198 202 191 189 198 204 209 212 220 209 192 211 256 243 217 229 230 223 229 224 215 207 214 232 211 191 214 222 228 219 194 210 195 175 168 175 193 166 147 120 120 129
190 192 198 191 183 183 196 190 187 176 224 186 225 245 253 177 226 230 238 228 229 221 210 212 200 221 224 212 217 204 207 198 203 197 186 182 172 169 156 134 133 130 131
183 189 188 181 185 190 195 187 191 208 208 189 210 249 186 217 190 184 219 225 226 218 211 202 203 216 223 215 200 198 200 202 202 202 194 167 157 145 137 137 135 135 140
176 178 183 178 183 185 186 190 201 206 197 196 174 226 250 226 201 164 160 211 208 223 211 198 189 208 205 220 197 209 177 192 201 199 189 166 150 144 141 142 147 150 150
163 171 168 169 176 180 190 195 180 185 196 192 208 173 208 200 159 198 148 151 175 203 223 208 201 201 197 207 195 187 184 187 189 187 158 157 150 148 146 146 147 145 143
151 164 163 168 172 179 180 179 191 198 194 205 207 199 206 202 202 182 135 144 167 140 196 224 209 197 173 185 191 151 177 189 175 146 163 151 147 148 151 152 149 150 145
154 161 164 165 165 162 165 181 186 190 194 201 203 206 210 210 193 193 155 125 141 125 165 161 211 214 175 166 194 211 180 184 162 158 142 146 144 149 153 149 151 151 147
154 155 157 156 155 166 172 177 186 200 196 208 207 215 216 212 206 204 189 159 134 115 133 173 143 184 186 202 218 192 193 167 160 151 145 135 140 148 146 141 140 130 149
144 160 159 158 166 172 175 177 191 194 200 204 211 211 223 217 212 208 200 220 175 169 172 163 162 90 126 193 204 193 182 149 140 135 132 133 135 136 131 126 134 158 169
150 149 148 163 168 165 171 176 177 166 186 195 212 206 213 220 214 204 205 219 235 170 158 146 57 84 40 241 176 167 134 135 129 131 124 123 126 126 129 131 126 113 108
147 150 158 166 157 160 172 167 161 168 189 210 210 215 216 213 212 195 184 200 201 196 142 96 100 38 32 87 113 116 127 128 127 129 128 133 133 129 114 106 103 109 120
146 151 160 160 156 158 169 179 170 168 189 200 168 187 183 193 201 171 181 188 189 178 148 129 81 64 49 68 103 107 118 124 130 125 122 117 114 113 121 124 127 144 183
151 157 158 156 165 169 170 172 171 161 158 144 148 147 162 155 178 179 166 176 148 138 146 129 115 95 55 86 89 91 99 98 109 117 106 107 112 117 114 122 139 147 148
159 154 149 162 157 159 161 146 166 157 172 152 181 141 156 176 165 180 172 149 146 141 124 119 113 102 86 83 103 111 104 107 110 101 106 110 113 119 120 144 155 149 147
158 144 151 149 134 142 107 127 141 169 164 145 154 177 181 187 187 175 165 157 146 141 133 121 119 116 120 122 115 115 114 110 90 101 99 94 110 107 128 140 139 144 135
157 154 160 164 154 112 42 65 162 150 147 160 168 181 151 141 152 151 136 147 154 150 140 134 136 141 134 126 126 127 120 123 116 81 113 71 112 131 117 155 64 123 128
144 148 146 184 126 107 26 140 160 151 155 169 160 162 154 125 155 146 116 102 95 85 142 150 145 143 138 142 137 129 129 133 126 139 124 92 168 113 93 110 83 131 142
154 145 144 143 132 90 64 130 166 134 138 151 156 136 142 162 156 152 149 144 140 142 143 145 144 145 151 148 142 131 118 105 101 108 127 120 179 133 155 128 116 147 156
141 131 144 137 135 106 103 143 169 120 116 97 103 126 139 147 152 148 146 136 117 101 65 96 109 114 110 112 128 124 126 135 127 150 223 151 165 142 176 167 155 180 187
139 140 132 116 62 114 114 180 149 127 119 109 97 93 64 136 153 150 141 142 124 133 126 120 110 103 118 109 109 128 147 139 131 145 177 161 158 167 179 182 183 181 195